Date String (YYYY-MM-DD hh:mm:ss) UTC,Instrument flags,absolute air pressure of the measurement (hPa),sample flow rate (lpm),inlet stack bypass flow (lpm),air temperature of the measurement (°C),ambient temperature measured by the external sensor (°C),aerosol sample conditioner tube jacket temperature (°C),OPC LED temperature (°C),internal box temperature (°C),relative humidity of the measurement (%),span deviation,mass concentration of particles derived from Lorenz-Mie calculation of OPC scattering (μg/m³),mass concentration of particles derived from Lorenz-Mie calculation of OPC scattering (μg/m³),mass concentration of particles derived from Lorenz-Mie calculation of OPC scattering (μg/m³)
DateTimeUTC,F1_M11,P_M11,Q1_M11,Q2_M11,T1_M11,T2_M11,T3_M11,T4_M11,T5_M11,U1_M11,ZSPAN_M11,X0_M11,X2_M11,X1_M11
2024-06-15 23:00:00,SystemResetWarning,0823.0,5.00,000.00,028.6,027.4,000.0,037.0,030.3,015.3,0000.0,0010.98,0004.86,0004.20
2024-06-15 23:01:00,SystemResetWarning,0823.0,5.00,000.00,028.7,027.8,000.0,037.0,030.5,015.4,0000.0,0011.62,0004.88,0004.20
2024-06-15 23:02:00,SystemResetWarning,0823.1,5.01,000.00,028.8,028.1,000.0,037.0,030.6,015.7,0000.0,0012.37,0004.91,0004.20
2024-06-15 23:03:00,SystemResetWarning,0823.1,4.99,000.00,028.9,028.3,000.0,037.1,030.8,015.1,0000.0,0013.85,0004.91,0004.20
2024-06-15 23:04:00,SystemResetWarning,0823.0,4.99,000.00,029.0,028.6,000.0,037.1,030.9,014.8,0000.0,0015.39,0004.94,0004.21
2024-06-15 23:05:00,SystemResetWarning,0823.0,5.00,000.00,029.1,028.8,000.0,037.1,031.0,015.1,0000.0,0015.49,0004.99,0004.21
2024-06-15 23:06:00,SystemResetWarning,0823.0,5.00,000.00,029.1,028.1,000.0,037.2,030.6,015.1,0000.0,0015.78,0004.96,0004.22
2024-06-15 23:07:00,SystemResetWarning,0822.9,5.00,000.00,028.8,026.0,000.0,037.2,029.6,015.7,0000.0,0015.87,0004.97,0004.24
2024-06-15 23:08:00,SystemResetWarning,0823.0,5.01,000.00,028.5,025.8,000.0,037.2,029.5,015.3,0000.0,0015.56,0004.98,0004.25
2024-06-15 23:09:00,SystemResetWarning,0823.0,5.00,000.00,028.5,026.4,000.0,037.2,029.8,015.2,0000.0,0015.06,0005.00,0004.26
2024-06-15 23:10:00,SystemResetWarning,0823.0,5.00,000.00,028.6,026.8,000.0,037.1,030.0,015.2,0000.0,0015.05,0005.01,0004.27
2024-06-15 23:11:00,SystemResetWarning,0823.0,5.00,000.00,028.6,027.2,000.0,037.0,030.2,015.5,0000.0,0015.42,0004.99,0004.29
2024-06-15 23:12:00,SystemResetWarning,0823.0,5.00,000.00,028.7,027.6,000.0,037.0,030.4,015.2,0000.0,0015.42,0004.96,0004.29
2024-06-15 23:13:00,SystemResetWarning,0823.0,5.00,000.00,028.8,028.0,000.0,037.0,030.6,014.5,0000.0,0014.39,0004.89,0004.29
2024-06-15 23:14:00,SystemResetWarning,0823.1,4.99,000.00,028.9,028.2,000.0,037.0,030.7,016.1,0000.0,0012.76,0004.89,0004.29
2024-06-15 23:15:00,SystemResetWarning,0823.1,5.00,000.00,029.0,028.5,000.0,037.0,030.9,015.4,0000.0,0011.75,0004.87,0004.29
2024-06-15 23:16:00,SystemResetWarning,0823.0,5.01,000.00,029.1,028.7,000.0,037.1,031.0,015.5,0000.0,0011.23,0004.85,0004.29
2024-06-15 23:17:00,SystemResetWarning,0823.1,5.00,000.00,029.1,028.4,000.0,037.2,030.8,015.1,0000.0,0010.96,0004.83,0004.29
2024-06-15 23:18:00,SystemResetWarning,0823.0,5.00,000.00,028.9,026.2,000.0,037.2,029.8,015.4,0000.0,0012.42,0004.83,0004.28
2024-06-15 23:19:00,SystemResetWarning,0823.0,5.02,000.00,028.6,025.5,000.0,037.2,029.4,016.4,0000.0,0012.64,0004.84,0004.28
2024-06-15 23:20:00,SystemResetWarning,0823.1,4.99,000.00,028.5,026.1,000.0,037.2,029.7,015.2,0000.0,0012.75,0004.87,0004.28
2024-06-15 23:21:00,SystemResetWarning,0823.1,4.99,000.00,028.5,026.6,000.0,037.1,029.9,015.6,0000.0,0013.08,0004.90,0004.27
2024-06-15 23:22:00,SystemResetWarning,0823.2,5.00,000.00,028.6,027.0,000.0,037.0,030.1,016.2,0000.0,0013.29,0004.88,0004.26
2024-06-15 23:23:00,SystemResetWarning,0823.2,5.01,000.00,028.6,027.4,000.0,037.0,030.3,016.8,0000.0,0012.98,0004.91,0004.26
2024-06-15 23:24:00,SystemResetWarning,0823.1,5.01,000.00,028.7,027.8,000.0,037.0,030.5,016.4,0000.0,0013.07,0004.95,0004.27
2024-06-15 23:25:00,SystemResetWarning,0823.3,5.00,000.00,028.8,028.1,000.0,037.0,030.7,014.7,0000.0,0013.44,0005.00,0004.28
2024-06-15 23:26:00,SystemResetWarning,0823.3,4.99,000.00,028.9,028.3,000.0,037.0,030.8,015.4,0000.0,0013.41,0005.02,0004.30
2024-06-15 23:27:00,SystemResetWarning,0823.4,5.00,000.00,029.0,028.6,000.0,037.0,030.9,016.9,0000.0,0013.81,0005.06,0004.31
2024-06-15 23:28:00,SystemResetWarning,0823.4,5.00,000.00,029.1,028.7,000.0,037.1,031.0,018.2,0000.0,0014.33,0005.12,0004.33
2024-06-15 23:29:00,SystemResetWarning,0823.4,5.01,000.00,029.2,028.7,000.0,037.2,031.0,018.8,0000.0,0014.01,0005.21,0004.37
2024-06-15 23:30:00,SystemResetWarning,0823.4,4.99,000.00,029.0,026.9,000.0,037.2,030.1,019.8,0000.0,0013.77,0005.24,0004.39
2024-06-15 23:31:00,SystemResetWarning,0823.4,5.02,000.00,028.7,025.5,000.0,037.3,029.4,020.3,0000.0,0014.06,0005.27,0004.43
2024-06-15 23:32:00,SystemResetWarning,0823.3,5.00,000.00,028.6,026.1,000.0,037.2,029.6,020.1,0000.0,0015.68,0005.33,0004.46
2024-06-15 23:33:00,SystemResetWarning,0823.4,5.00,000.00,028.6,026.5,000.0,037.1,029.9,019.7,0000.0,0016.17,0005.42,0004.50
2024-06-15 23:34:00,SystemResetWarning,0823.4,5.00,000.00,028.6,027.0,000.0,037.1,030.2,020.0,0000.0,0016.10,0005.49,0004.53
2024-06-15 23:35:00,SystemResetWarning,0823.4,5.00,000.00,028.7,027.4,000.0,037.0,030.4,019.7,0000.0,0016.62,0005.54,0004.57
2024-06-15 23:36:00,SystemResetWarning,0823.4,5.00,000.00,028.8,027.7,000.0,037.0,030.6,019.6,0000.0,0016.83,0005.59,0004.61
2024-06-15 23:37:00,SystemResetWarning,0823.4,4.99,000.00,028.9,028.1,000.0,037.0,030.7,020.0,0000.0,0018.13,0005.66,0004.64
2024-06-15 23:38:00,SystemResetWarning,0823.4,5.00,000.00,029.0,028.3,000.0,037.1,030.9,020.1,0000.0,0018.48,0005.70,0004.67
2024-06-15 23:39:00,SystemResetWarning,0823.5,5.00,000.00,029.1,028.5,000.0,037.1,031.0,020.7,0000.0,0018.37,0005.72,0004.69
2024-06-15 23:40:00,SystemResetWarning,0823.5,5.00,000.00,029.2,028.7,000.0,037.1,031.1,021.3,0000.0,0018.48,0005.72,0004.69
2024-06-15 23:41:00,SystemResetWarning,0823.4,4.99,000.00,029.2,028.4,000.0,037.2,030.9,022.1,0000.0,0018.48,0005.73,0004.72
2024-06-15 23:42:00,SystemResetWarning,0823.4,5.00,000.00,029.0,026.3,000.0,037.3,029.9,020.2,0000.0,0018.52,0005.75,0004.72
2024-06-15 23:43:00,SystemResetWarning,0823.4,5.01,000.00,028.6,025.5,000.0,037.3,029.5,020.5,0000.0,0019.93,0005.78,0004.74
2024-06-15 23:44:00,SystemResetWarning,0823.4,5.00,000.00,028.6,026.1,000.0,037.2,029.7,021.6,0000.0,0018.81,0005.77,0004.76
2024-06-15 23:45:00,SystemResetWarning,0823.4,4.99,000.00,028.6,026.5,000.0,037.1,030.0,021.9,0000.0,0018.78,0005.79,0004.79
2024-06-15 23:46:00,SystemResetWarning,0823.4,5.00,000.00,028.6,027.0,000.0,037.1,030.2,021.6,0000.0,0019.94,0005.79,0004.80
2024-06-15 23:47:00,SystemResetWarning,0823.4,5.01,000.00,028.7,027.4,000.0,037.0,030.4,022.0,0000.0,0024.16,0006.07,0004.82
2024-06-15 23:48:00,SystemResetWarning,0823.4,4.99,000.00,028.8,027.7,000.0,037.0,030.6,021.3,0000.0,0027.20,0006.36,0004.84
2024-06-15 23:49:00,SystemResetWarning,0823.5,5.00,000.00,028.9,028.0,000.0,037.0,030.7,022.2,0000.0,0028.02,0006.45,0004.86
2024-06-15 23:50:00,SystemResetWarning,0823.5,5.00,000.00,029.0,028.3,000.0,037.0,030.8,022.4,0000.0,0029.27,0006.55,0004.89
2024-06-15 23:51:00,SystemResetWarning,0823.5,4.99,000.00,029.1,028.5,000.0,037.1,030.9,022.6,0000.0,0029.80,0006.65,0004.94
2024-06-15 23:52:00,SystemResetWarning,0823.5,5.00,000.00,029.2,028.7,000.0,037.1,031.0,022.4,0000.0,0029.72,0006.70,0004.96
2024-06-15 23:53:00,SystemResetWarning,0823.6,5.00,000.00,029.3,028.9,000.0,037.2,031.2,022.3,0000.0,0029.88,0006.78,0005.00
2024-06-15 23:54:00,SystemResetWarning,0823.6,5.00,000.00,029.3,028.9,000.0,037.3,031.1,022.5,0000.0,0029.16,0006.87,0005.05
2024-06-15 23:55:00,SystemResetWarning,0823.5,4.99,000.00,029.2,027.1,000.0,037.3,030.3,022.6,0000.3,0028.53,0006.95,0005.08
2024-06-15 23:56:00,SystemResetWarning,0823.5,5.01,000.00,028.8,025.6,000.0,037.3,029.5,023.1,0000.0,0027.86,0006.93,0005.09
2024-06-15 23:57:00,SystemResetWarning,0823.5,5.01,000.00,028.6,026.0,000.0,037.3,029.7,022.9,0000.0,0026.40,0006.97,0005.13
2024-06-15 23:58:00,SystemResetWarning,0823.6,4.99,000.00,028.6,026.5,000.0,037.2,029.9,022.9,0000.0,0022.64,0006.84,0005.16
2024-06-15 23:59:00,SystemResetWarning,0823.7,5.00,000.00,028.7,026.9,000.0,037.2,030.1,022.9,0000.0,0020.99,0006.71,0005.20
